Stations météo

réclame
Mon MeteoGroup
St. James's Park, Grande-Bretagne (3770): Température de l'air & dewpoint: 16.06.2018 18:00:00 - 22.06.2018 18:00:00 (BST)St. James's Park, Grande-Bretagne (3770): Température de l'air -20cm & Température de l'air -100cm: 16.06.2018 18:00:00 - 22.06.2018 18:00:00 (BST)St. James's Park, Grande-Bretagne (3770): Quantités de précipitations: 16.06.2018 18:00:00 - 22.06.2018 18:00:00 (BST)
Date & Time tt [°C] td [°C] tt -20cm [°C] tt -100cm [°C] rr [mm]
22.06.2018 18:00:00 - - - - 0,0
22.06.2018 17:00:00 22,2 4,9 - - 0,0
22.06.2018 16:00:00 21,7 5,3 - - 0,0
22.06.2018 15:00:00 21,5 5,5 - - 0,0
22.06.2018 14:00:00 21,5 6,5 - - 0,0
22.06.2018 13:00:00 20,9 7,5 - - 0,0
22.06.2018 12:00:00 19,7 6,7 - - 0,0
22.06.2018 11:00:00 18,3 6,4 - - 0,0
22.06.2018 10:00:00 17,2 7,0 18,7 17,2 0,0
22.06.2018 09:00:00 15,2 6,6 - - 0,0
22.06.2018 08:00:00 14,0 7,7 - - 0,0
22.06.2018 07:00:00 12,2 7,0 - - 0,0
22.06.2018 06:00:00 10,4 6,7 - - 0,0
22.06.2018 05:00:00 10,4 6,0 - - 0,0
22.06.2018 04:00:00 11,3 5,9 - - 0,0
22.06.2018 03:00:00 11,9 5,7 - - 0,0
22.06.2018 02:00:00 13,1 5,4 - - 0,0
22.06.2018 01:00:00 13,8 5,1 - - 0,0
22.06.2018 00:00:00 14,9 4,7 - - 0,0
21.06.2018 23:00:00 16,0 4,5 - - 0,0
21.06.2018 22:00:00 16,9 4,1 - - 0,0
21.06.2018 21:00:00 17,4 3,4 - - 0,0
21.06.2018 20:00:00 18,3 3,2 - - 0,0
21.06.2018 19:00:00 18,8 2,7 - - 0,0
21.06.2018 18:00:00 20,0 1,9 - - 0,0
21.06.2018 17:00:00 20,6 2,9 - - 0,0
21.06.2018 16:00:00 20,7 3,7 - - 0,0
21.06.2018 15:00:00 19,1 2,5 - - 0,0
21.06.2018 14:00:00 20,1 4,6 - - 0,0
21.06.2018 13:00:00 18,3 4,7 - - 0,0
21.06.2018 12:00:00 18,1 5,6 - - 0,0
21.06.2018 11:00:00 16,6 3,9 - - 0,0
21.06.2018 10:00:00 15,7 4,6 18,9 17,2 0,0
21.06.2018 09:00:00 15,5 5,9 - - 0,0
21.06.2018 08:00:00 13,2 5,6 - - 0,0
21.06.2018 07:00:00 12,8 6,5 - - 0,0
21.06.2018 06:00:00 12,1 6,3 - - 0,0
21.06.2018 05:00:00 12,4 6,0 - - 0,0
21.06.2018 04:00:00 12,5 5,9 - - 0,0
21.06.2018 03:00:00 13,8 5,7 - - 0,0
21.06.2018 02:00:00 14,8 5,6 - - 0,0
21.06.2018 01:00:00 15,5 6,8 - - 0,0
21.06.2018 00:00:00 16,7 8,2 - - 0,0
20.06.2018 23:00:00 19,0 13,5 - - 0,0
20.06.2018 22:00:00 19,1 13,9 - - 0,0
20.06.2018 21:00:00 20,0 14,3 - - 0,0
20.06.2018 20:00:00 21,4 15,3 - - 0,0
20.06.2018 19:00:00 23,2 15,5 - - 0,0
20.06.2018 18:00:00 24,4 15,8 - - 0,0
20.06.2018 17:00:00 24,3 15,9 - - 0,0
20.06.2018 16:00:00 24,7 15,5 - - 0,0
20.06.2018 15:00:00 23,9 16,7 - - 0,0
20.06.2018 14:00:00 23,1 15,9 - - 0,0
20.06.2018 13:00:00 21,9 15,7 - - 0,0
20.06.2018 12:00:00 20,1 15,0 - - 0,0
20.06.2018 11:00:00 18,3 14,5 - - 0,0
20.06.2018 10:00:00 17,2 14,2 19,0 17,0 0,0
20.06.2018 09:00:00 16,6 14,2 - - 0,0
20.06.2018 08:00:00 16,3 14,5 - - 0,0
20.06.2018 07:00:00 16,2 14,7 - - 0,0
20.06.2018 06:00:00 15,7 14,5 - - 0,0
20.06.2018 05:00:00 15,4 13,9 - - 0,0
20.06.2018 04:00:00 16,4 14,4 - - 0,0
20.06.2018 03:00:00 16,3 14,4 - - 0,0
20.06.2018 02:00:00 16,4 14,4 - - 0,0
20.06.2018 01:00:00 17,3 14,7 - - 0,0
20.06.2018 00:00:00 18,1 14,8 - - 0,0
19.06.2018 23:00:00 18,8 14,8 - - 0,0
19.06.2018 22:00:00 20,2 15,3 - - 0,0
19.06.2018 21:00:00 21,2 15,7 - - 0,0
19.06.2018 20:00:00 22,1 16,1 - - 0,0
19.06.2018 19:00:00 23,1 16,1 - - 0,0
19.06.2018 18:00:00 24,2 16,2 - - 0,0
19.06.2018 17:00:00 24,6 16,0 - - 0,0
19.06.2018 16:00:00 24,3 15,7 - - 0,0
19.06.2018 15:00:00 24,1 15,9 - - 0,0
19.06.2018 14:00:00 23,1 14,5 - - 0,0
19.06.2018 13:00:00 22,4 14,8 - - 0,0
19.06.2018 12:00:00 21,8 14,3 - - 0,0
19.06.2018 11:00:00 21,7 15,1 - - 0,0
19.06.2018 10:00:00 20,3 14,3 19,0 17,0 0,0
19.06.2018 09:00:00 18,8 14,5 - - 0,0
19.06.2018 08:00:00 18,5 14,3 - - 0,0
19.06.2018 07:00:00 17,8 13,7 - - 0,0
19.06.2018 06:00:00 17,7 14,2 - - 0,0
19.06.2018 05:00:00 18,3 14,2 - - 0,0
19.06.2018 04:00:00 18,4 14,9 - - 0,0
19.06.2018 03:00:00 18,7 14,8 - - 0,0
19.06.2018 02:00:00 18,9 14,7 - - 0,0
19.06.2018 01:00:00 18,4 15,3 - - 0,0
19.06.2018 00:00:00 18,3 15,1 - - 0,0
18.06.2018 23:00:00 18,4 14,8 - - 0,0
18.06.2018 22:00:00 18,9 14,6 - - 0,0
18.06.2018 21:00:00 20,0 13,9 - - 0,0
18.06.2018 20:00:00 21,3 14,3 - - 0,0
18.06.2018 19:00:00 22,3 14,3 - - 0,0
18.06.2018 18:00:00 23,5 14,2 - - 0,0
18.06.2018 17:00:00 24,2 13,8 - - 0,0
18.06.2018 16:00:00 24,6 13,4 - - 0,0
18.06.2018 15:00:00 25,0 11,6 - - 0,0
18.06.2018 14:00:00 23,5 11,8 - - 0,0
18.06.2018 13:00:00 21,7 11,7 - - 0,0
18.06.2018 12:00:00 20,0 11,7 - - 0,0
18.06.2018 11:00:00 18,7 11,9 - - 0,0
18.06.2018 10:00:00 18,6 13,0 18,2 17,0 0,0
18.06.2018 09:00:00 17,0 11,8 - - 0,0
18.06.2018 08:00:00 16,4 12,8 - - 0,0
18.06.2018 07:00:00 15,8 12,5 - - 0,0
18.06.2018 06:00:00 15,2 13,0 - - 0,2
18.06.2018 05:00:00 16,0 14,6 - - 0,0
18.06.2018 04:00:00 15,9 14,6 - - 0,0
18.06.2018 03:00:00 16,0 14,4 - - 0,0
18.06.2018 02:00:00 16,0 14,3 - - 0,0
18.06.2018 01:00:00 15,8 14,3 - - 0,0
18.06.2018 00:00:00 15,7 14,0 - - 0,0
17.06.2018 23:00:00 15,8 13,6 - - 0,0
17.06.2018 22:00:00 15,6 13,2 - - 0,0
17.06.2018 21:00:00 15,6 12,9 - - 0,0
17.06.2018 20:00:00 15,9 12,6 - - 0,0
17.06.2018 19:00:00 16,4 12,1 - - 0,0
17.06.2018 18:00:00 17,2 11,3 - - 0,0
17.06.2018 17:00:00 17,7 11,2 - - 0,0
17.06.2018 16:00:00 17,6 11,0 - - 0,0
17.06.2018 15:00:00 17,7 10,9 - - 0,0
17.06.2018 14:00:00 18,3 9,3 - - 0,0
17.06.2018 13:00:00 18,8 9,1 - - 0,0
17.06.2018 12:00:00 19,3 10,4 - - 0,0
17.06.2018 11:00:00 16,9 10,7 - - 0,0
17.06.2018 10:00:00 - - - - -
17.06.2018 09:00:00 13,9 11,1 - - 0,2
17.06.2018 08:00:00 13,8 10,7 - - 0,0
17.06.2018 07:00:00 14,1 9,6 - - 0,0
17.06.2018 06:00:00 13,9 9,5 - - 0,0
17.06.2018 05:00:00 13,8 9,4 - - 0,0
17.06.2018 04:00:00 13,8 9,1 - - 0,0
17.06.2018 03:00:00 13,6 8,9 - - 0,0
17.06.2018 02:00:00 13,5 8,6 - - 0,0
17.06.2018 01:00:00 14,1 8,3 - - 0,0
17.06.2018 00:00:00 14,6 8,1 - - 0,0
16.06.2018 23:00:00 15,1 7,6 - - 0,0
16.06.2018 22:00:00 16,1 8,7 - - 0,0
16.06.2018 21:00:00 17,0 11,5 - - 0,0
16.06.2018 20:00:00 17,5 11,5 - - 0,0
16.06.2018 19:00:00 17,3 11,7 - - 0,0
16.06.2018 18:00:00 17,2 12,3 - - 0,0

tt = Température de l'air
td = dewpoint
tt -20cm = Température de l'air -20cm
tt -100cm = Température de l'air -100cm
rr = Quantités de précipitations

stations d'obs. à proximité